Change the Weather History Date:

Tuesday, May 14, 2013

  Actual Average Record
Temperature  
Mean Temperature 66 °F -  
Max Temperature 82 °F 83 °F 93 °F (1998)
Min Temperature 50 °F 61 °F 50 °F (2013)
Growing Degree Days 16 (Base 50)    
Moisture  
Dew Point 50 °F    
Average Humidity 58    
Maximum Humidity 86    
Minimum Humidity 30    
Precipitation  
Precipitation 0.00 in - - ()
Sea Level Pressure  
Sea Level Pressure 30.19 in    
Wind  
Wind Speed 3 mph (South)    
Max Wind Speed 13 mph    
Max Gust Speed 20 mph    
Visibility 10 miles    
Events      
Averages and records for this station are not official NWS values.
T = Trace of Precipitation, MM = Missing Value Source: NWS Daily Summary

Daily Weather History Graph

Daily Weather History Graph

Search for Another Location

Airport or City:

Trip Planner

Search our weather history database for the weather conditions in past years. The results will help you decide how hot, cold, wet, or windy it might be!

Date:

Astronomy

May. 14, 2013 Rise Set
Actual Time 5:53 AM CDT 7:35 PM CDT
Civil Twilight 5:27 AM CDT 8:01 PM CDT
Nautical Twilight 4:55 AM CDT 8:33 PM CDT
Astronomical Twilight 4:22 AM CDT 9:07 PM CDT
Moon 9:32 AM CDT (5/14) 11:24 PM CDT (5/14)
Length of Visible Light 14h 34m
Length of Day
13h 41m
Waxing Crescent, 19% of the Moon is Illuminated
May 14
Waxing Crescent
May 17
First Quarter
May 24
Full
May 31
Last Quarter
Jun 8
New

Hourly Weather History & Observations

Time (CDT) Temp. Heat Index Dew Point Humidity Pressure Visibility Wind Dir Wind Speed Gust Speed Precip Events Conditions
12:56 AM 57.0 °F - 50.0 °F 77% 30.17 in 10.0 mi Calm Calm - N/A   Clear
1:56 AM 52.0 °F - 46.9 °F 83% 30.17 in 10.0 mi Calm Calm - N/A   Clear
2:56 AM 54.0 °F - 46.0 °F 75% 30.17 in 10.0 mi North 3.5 mph - N/A   Clear
3:56 AM 50.0 °F - 45.0 °F 83% 30.18 in 10.0 mi Calm Calm - N/A   Clear
4:56 AM 50.0 °F - 45.0 °F 83% 30.19 in 10.0 mi Calm Calm - 0.00 in   Clear
5:56 AM 50.0 °F - 46.0 °F 86% 30.20 in 10.0 mi Calm Calm - N/A   Partly Cloudy
6:56 AM 55.9 °F - 48.0 °F 75% 30.23 in 10.0 mi Calm Calm - N/A   Partly Cloudy
7:56 AM 66.0 °F - 51.1 °F 59% 30.24 in 10.0 mi Calm Calm - N/A   Partly Cloudy
8:56 AM 69.1 °F - 46.9 °F 45% 30.25 in 10.0 mi East 3.5 mph - N/A   Partly Cloudy
9:56 AM 73.9 °F - 46.0 °F 37% 30.25 in 10.0 mi SSE 5.8 mph - N/A   Partly Cloudy
10:56 AM 77.0 °F - 46.9 °F 34% 30.25 in 10.0 mi Variable 3.5 mph - N/A   Clear
11:56 AM 79.0 °F - 45.0 °F 30% 30.24 in 10.0 mi NNW 5.8 mph - N/A   Clear
12:56 PM 80.1 °F - 46.9 °F 31% 30.22 in 10.0 mi Calm Calm - N/A   Partly Cloudy
1:56 PM 81.0 °F - 51.1 °F 35% 30.19 in 10.0 mi Variable 4.6 mph - N/A   Partly Cloudy
2:56 PM 80.1 °F - 52.0 °F 38% 30.17 in 10.0 mi South 12.7 mph 19.6 mph N/A   Partly Cloudy
3:56 PM 80.1 °F 79.9 °F 53.1 °F 39% 30.15 in 10.0 mi South 12.7 mph - N/A   Partly Cloudy
4:56 PM 79.0 °F - 52.0 °F 39% 30.14 in 10.0 mi South 10.4 mph 18.4 mph N/A   Partly Cloudy
5:56 PM 75.9 °F - 53.1 °F 45% 30.14 in 10.0 mi South 12.7 mph - N/A   Scattered Clouds
6:56 PM 73.0 °F - 53.1 °F 49% 30.14 in 10.0 mi South 8.1 mph - N/A   Partly Cloudy
7:56 PM 69.1 °F - 53.1 °F 57% 30.14 in 10.0 mi South 9.2 mph - N/A   Partly Cloudy
8:56 PM 66.0 °F - 54.0 °F 65% 30.16 in 10.0 mi SSW 5.8 mph - N/A   Clear
9:56 PM 64.9 °F - 54.0 °F 68% 30.16 in 10.0 mi WSW 4.6 mph - N/A   Clear
10:56 PM 62.1 °F - 53.1 °F 72% 30.16 in 10.0 mi Calm Calm - N/A   Clear
11:56 PM 59.0 °F - 53.1 °F 81% 30.15 in 10.0 mi Calm Calm - N/A   Clear